Cloud_Cover
1 18 81 90 90 97 100 68 57 44 100 98 37 42 28 100 40 100 100 10 4 5 5 5 5 22 42 16 49 100 98 100 100 100 100 100 100 100 100 100 100 100 100
10 59 87 99 87 100 100 100 87 94 64 84 100 81 99 100 55 82 93 24 0 0 0 0 0 7 55 71 95 100 100 100 100 100 100 100 100 100 100 100 100 100 100
19 43 38 66 61 100 94 67 24 49 33 46 60 64 77 85 7 39 51 0 0 0 0 0 0 0 50 92 61 83 100 100 100 100 100 100 100 100 100 100 100 100 100
49 67 64 56 46 100 100 87 56 85 83 71 48 32 28 23 30 53 4 0 0 0 0 0 0 0 65 100 93 96 65 34 100 100 100 100 100 100 100 100 100 100 100
56 90 94 32 81 88 100 98 98 43 100 66 97 99 40 30 84 4 0 0 3 2 1 0 0 0 3 99 100 100 99 15 23 97 100 100 100 100 100 100 100 100 100
75 100 72 93 72 100 100 100 79 72 48 87 99 71 73 39 66 0 0 2 14 4 2 26 20 4 0 82 100 100 100 98 100 99 99 100 100 100 100 100 100 100 100
88 98 95 80 100 99 100 100 100 100 100 91 100 94 34 5 21 7 0 12 8 0 1 11 24 27 56 100 100 100 100 100 66 100 100 100 100 100 100 100 100 100 100
86 100 97 100 100 91 92 50 82 72 100 96 56 92 18 50 88 5 2 13 0 4 16 47 72 0 6 100 100 100 100 100 100 100 100 100 100 100 100 100 100 100 100
94 52 92 99 74 31 36 97 99 99 82 38 19 61 84 53 24 12 28 6 10 7 58 59 100 83 100 100 100 100 100 100 100 100 100 100 100 100 100 100 100 100 100
51 98 78 99 93 28 100 100 98 94 60 35 10 4 10 94 6 57 42 7 22 33 100 100 99 100 100 100 100 100 100 100 100 100 100 100 100 100 100 100 100 100 100
96 100 100 80 65 96 61 44 100 64 72 43 61 30 13 7 36 82 100 100 66 80 100 95 100 100 100 100 100 100 100 100 100 100 100 100 100 100 100 100 100 100 100
91 54 67 77 80 28 52 56 90 74 99 99 100 96 49 72 100 100 100 44 97 100 100 100 100 100 100 100 100 100 100 100 100 100 100 100 100 100 100 100 100 100 100
42 69 59 33 23 35 43 95 100 100 95 66 92 100 99 100 60 71 32 62 100 100 100 100 100 100 100 100 100 100 100 100 100 100 100 100 100 100 100 100 100 100 100
18 43 30 21 28 32 100 79 100 100 100 100 100 95 71 16 5 50 6 62 100 100 100 100 100 100 100 100 100 100 100 100 100 100 100 100 100 100 100 100 100 100 100
46 35 25 23 30 31 50 99 50 37 99 100 100 100 100 75 13 58 100 100 100 100 100 100 100 100 100 100 100 100 100 100 100 100 100 100 100 100 100 100 100 100 100
34 56 31 32 23 100 100 100 83 82 86 100 100 100 99 100 100 100 100 100 100 100 100 100 100 100 100 100 100 100 100 100 100 100 100 100 100 100 100 100 100 100 100
21 48 40 43 71 28 28 99 100 98 99 87 94 100 100 100 100 100 100 100 100 100 100 100 100 100 100 100 100 100 100 100 100 100 100 100 100 100 100 100 100 100 100
15 6 22 48 6 12 53 100 100 99 100 100 100 100 100 100 100 100 100 100 100 100 100 100 100 100 100 100 100 100 100 100 100 100 100 100 100 100 100 100 100 100 100
86 38 24 50 37 37 99 100 100 100 100 100 100 100 100 100 100 100 100 100 100 100 100 100 100 100 100 100 100 100 100 100 100 100 100 100 100 100 100 100 100 100 100
100 100 52 28 99 100 100 100 100 100 100 96 100 100 100 100 100 100 100 100 100 100 100 100 100 100 100 100 100 100 100 100 100 100 100 100 100 100 100 100 100 100 100
91 100 100 98 92 100 100 100 100 100 100 80 100 100 100 100 100 100 100 100 100 100 100 100 100 100 100 100 100 100 100 100 100 100 100 100 100 100 100 100 100 100 100
55 89 83 28 89 100 100 100 100 100 100 68 73 100 100 100 100 100 100 100 100 100 100 100 100 100 100 100 100 100 100 100 100 100 100 100 100 100 100 100 100 100 100
100 100 100 63 88 49 100 100 100 100 100 96 64 100 100 100 100 100 100 100 100 100 100 100 100 100 100 100 100 100 100 100 100 100 100 100 94 100 88 92 81 100 100
99 84 100 97 44 55 100 100 98 100 100 96 98 100 94 98 100 98 100 100 100 100 100 100 100 100 100 100 100 100 100 100 100 100 100 100 100 92 92 100 100 100 100
100 100 68 100 83 86 100 100 80 100 100 76 100 100 100 89 100 100 100 100 100 100 100 100 100 100 100 100 100 100 100 100 100 100 100 94 67 99 100 93 89 100 100
32 89 99 99 100 100 100 100 80 100 100 81 96 100 99 100 98 99 100 100 100 100 100 100 100 100 100 100 100 100 100 98 100 100 99 100 99 100 100 100 100 100 100